NOAA 16 DEB, 41207

Orbit data source: Space-Track

NOAA 16 DEB, 41207 is space debris in SSO originally from a launch on Thu, 21 Sep 2000 UTC launched from the Air Force Western Test Range (AFWTR). Debris objects in space refer to the collection of defunct objects orbiting the Earth. Examples of debris include non-operational satellites, rocket bodies, and fragments generated from explosions, collisions, or faulty payload assembly.

Loading next visibility...
Identifier
41207, 2000-055DL
Orbit
SSO
Country
Flag of USUS
Related business
Manufacturer
Unknown
Mission
Spacecraft
Bus & Motor
Unknown
Mass
Unknown
Launch date (UTC)
2000-09-21 (26 years ago)
Launch vehicle
Unknown
Launch site
Air Force Western Test Range (AFWTR)
Object type
Payload
Rocket body
Debris
Shape & HBR
Unknown shape, 0.1 m
Radar Cross Section
Medium (>0.1 m² and <1 m²)

Expand to show TLE details & history
Last TLE update: 1 day ago

TLE from 1 day ago
0 NOAA 16 DEB
1 41207U 00055DL  26253.73337647  .00018063  00000-0  20777-2 0  9995
2 41207  98.8964 169.3257 0029812 351.7190   8.3526 14.85515350565187
Epoch: 2026-09-10T17:36Z
TLE epoch observation values (Epoch: 2026-09-10T17:36:03.727Z)
Latitude
0.00002°
Longitude
-84.45668°
Altitude
594.345 km
Speed
7.574 km/s
True Right ascension
11h 17m 18s
True Declination
0° 00' 00"
Sunlit
Object was in daylight at epoch
Visualization orbit readout
Latitude
Unknown
Longitude
Unknown
Altitude
Unknown
Speed
Unknown
Apparent Right ascension
Unknown
Apparent Declination
Unknown
Sunlit
N/A
Visualization observer readout
Local Sidereal Time
15:17:20
Azimuth
Unknown
Elevation
Unknown
Doppler factor
Unknown
Orbital elements
Apogee altitude
629.88 km
Perigee altitude
588.219 km
Semi-major axis
6,987.187 km
Eccentricity
0.00298
Inclination
98.8964°
RAAN
169.3257°
Arg. of periapsis
351.719°
True anomaly
8.40241°
Mean anomaly
8.3526°
Eccentric anomaly
8.37749°
Mean motion
3.71612 °/min
Orbital period
96.88 mins
BSTAR
0.0020777
Loading maneuver chart data...
Computing Atmospheric mass density...
Loading historical data...
Loading historical data...
Loading historical data...
Loading historical data...
Loading historical data...
Loading historical data...
Loading historical data...

Documentation

Showing up to 5 results
|